Regional Weather Roundup
Issued by NWS Grand Forks, ND

Home | Current Version | Previous Version | Graphics & Text | Print | Product List | Glossary On
Versions: 1 2 3 4 5 6 7 8 9 10 11 12 13 14 15 16 17 18 19 20 21 22 23 24 25 26 27 28 29 30 31 32 33 34 35 36 37 38 39 40 41 42 43 44 45 46 47 48 49 50
000
ASUS43 KFGF 250931
RWRFGF
PRAIRIE TO PINES  WEATHER ROUNDUP
NATIONAL WEATHER SERVICE EASTERN NORTH DAKOTA/GRAND FORKS ND
300 AM CST SUN JAN 25 2015

 **SATELLITE DATA USED TO AUGMENT SKY COVER AT AUTOMATED STATIONS**
 *****  WEATHER ACROSS EASTERN NORTH DAKOTA  *****

CITY           SKY/WX    TMP DP  RH WIND       PRES   REMARKS
GRAND FORKS    CLOUDY    18  12  77 N6        29.95R WCI  10
GRAND FRKS AFB CLOUDY    18  13  81 N7        29.96R WCI   8
GRAND FRKS NWS   N/A     18 N/A N/A VRB6        N/A  WCI   9
DEVILS LAKE    CLOUDY    16  10  79 NE6       29.93R WCI   7
FARGO          MOCLDY    23  17  78 N12       29.91R WCI  12
WAHPETON ARPT  CLOUDY    27  23  86 N12       29.89R WCI  16
$$

 ***** WEATHER ACROSS CENTRAL AND WESTERN NORTH DAKOTA  *****

CITY           SKY/WX    TMP DP  RH WIND       PRES   REMARKS
BISMARCK       CLOUDY    37  32  82 NW10      29.90R
MINOT          CLOUDY    28  25  88 CALM      29.91R FOG
JAMESTOWN      CLOUDY    22  19  89 N6        29.90R WCI  14
MINOT AFB      CLOUDY    27  27 100 N3        29.91R
GARRISON         N/A     35  33  92 NW14      29.90R
WILLISTON      CLOUDY    36  30  79 NW13      29.97S
DICKINSON      PTCLDY    33  28  81 NW12      29.94S WCI  24
HETTINGER      MOCLDY    33  28  81 W17       29.98R WCI  22
$$

 *****  OTHER AIRPORT OBSERVATIONS IN OUR AREA  *****

CITY           SKY/WX    TMP DP  RH WIND       PRES   REMARKS
WALHALLA         N/A     14  12  92 N8        30.01R WCI   3
GRAFTON AIRPOR NOT AVBL
VALLEY CITY AR NOT AVBL
CANDO          CLOUDY    16  12  86 NE8       29.96R WCI   5
CAVALIER APRT  CLOUDY    16  10  79 N8        30.01R WCI   5
GWINNER        PTSUNNY   27  27 100 N12       29.90R WCI  16
SHEYENNE NWR     N/A     22  19  87 N7        29.95S WCI  13
ROLLA          CLOUDY    14  12  92 NE8       29.94R WCI   3
 ***** THE ABOVE OBSERVATIONS ARE NON NWS ARE NOT QUALITY
       CONTROLLED AND MAY MIS-REPORT RAIN FOR SNOW...
$$

  *****  WEATHER ACROSS NORTHERN MINNESOTA  *****

CITY           SKY/WX    TMP DP  RH WIND       PRES   REMARKS
FLAG ISLAND    PTCLDY     9   0  66 CALM      29.99S
WARROAD        PTCLDY    10   3  72 NE10G16   29.99R WCI  -3
ROSEAU         PTCLDY    10   5  79 NE13      29.98R WCI  -5
HALLOCK        CLEAR     14   7  73 NE6       30.00R WCI   5
THF RVR FALLS  CLOUDY    16   9  73 NE10      29.93S WCI   3
BAUDETTE       CLOUDY     9   0  67 E7        29.96R WCI  -2
WASKISH        CLOUDY    10   5  79 NE6       29.95R WCI   1
CROOKSTON      CLOUDY    19  12  73 E8        29.95S WCI   9
$$
  *****  WEATHER ACROSS CENTRAL AND WEST MINNESOTA  *****

CITY           SKY/WX    TMP DP  RH WIND       PRES   REMARKS
FOSSTON        CLOUDY    14   9  79 NE6       29.91R WCI   5
BEMIDJI        CLOUDY    15   9  76 N6        29.90R WCI   7
PARK RAPIDS    CLOUDY    23  13  65 N9        29.86R WCI  13
ELBOW LAKE     CLOUDY    31  28  91 N9        29.84R WCI  22
WADENA         CLOUDY    27  21  80 N9        29.85R WCI  17
DETROIT LAKES  MOCLDY    27  23  86 NW3       29.87R
MOORHEAD       MOCLDY    23  21  93 N10       29.92R WCI  12
FERGUS FALLS   CLOUDY    28  27  93 N6        29.89R WCI  22
MORRIS MN      CLOUDY    32  30  93 N12       29.83R WCI  23
STAPLES        CLOUDY    27  23  86 E7        29.85R WCI  19
$$
  *****  WEATHER ELSEWHERE ACROSS MINNESOTA  *****

CITY           SKY/WX    TMP DP  RH WIND       PRES   REMARKS
DULUTH         FLURRIES  19  12  74 E15G22    29.88R WCI   5
INTRNTL FALLS  CLOUDY     5  -4  66 E9        29.98R WCI  -9
ELY            MOCLDY    -2  -6  84 CALM      29.95R
CLOQUET        FLURRIES  19  12  73 E13G25    29.89R WCI   7
WHEATON        MIX PCPN  27  27 100 N10       29.89R WCI  17
BRAINERD       CLOUDY    24  19  81 NE9       29.85R WCI  14
HIBBING        CLOUDY    20  11  68 E6        29.89R WCI  12
ALEXANDRIA     CLOUDY    31  27  85 N8        29.82R WCI  23
SAINT CLOUD    CLOUDY    28  23  81 NE5       29.83R WCI  23
MINNEAPOLIS    CLOUDY    30  26  85 N15       29.78R WCI  19
$$

  *****  WEATHER ACROSS SOUTH DAKOTA  *****

CITY           SKY/WX    TMP DP  RH WIND       PRES   REMARKS
SIOUX FALLS    FLURRIES  33  31  92 N17       29.76R WCI  22
BROOKINGS      NOT AVBL
WATERTOWN      CLOUDY    31  30  96 N14       29.80R WCI  21
HURON          CLOUDY    31  29  92 N15       29.86R WCI  20
SISSETON         N/A     29  28  96 N16       29.86R WCI  17
ABERDEEN       CLOUDY    29  26  89 N12       29.90R WCI  19
MITCHELL       CLOUDY    33  31  92 N16       29.86R WCI  23
PIERRE         CLOUDY    37  31  78 NW17      29.91R
MOBRIDGE       CLOUDY    38  33  82 NW17      29.87R
RAPID CITY     CLEAR     37  22  54 NW17      30.02R
$$

  *****  SOME WEATHER IN NEARBY STATES *****

CITY           SKY/WX    TMP DP  RH WIND       PRES   REMARKS
GLASGOW MT     CLEAR     33  25  72 NW8       30.04S
GREAT FALLS MT MOCLDY    45  36  70 SW17      30.03F
CHEYENNE WY    CLEAR     36  25  64 NW16G24   30.11R
SCOTTSBLUFF NE PTCLDY    37  27  67 W18       30.09R
OMAHA NE       LGT RAIN  40  37  89 NW18      29.64R
DES MOINES IA  CLOUDY    41  38  89 N6        29.56R
DAVENPORT IA   CLOUDY    35  31  85 E7        29.59S
CHICAGO IL     CLOUDY    32  30  92 NE7       29.67S FOG
EAU CLAIRE WI  CLOUDY    28  21  75 NE17G24   29.77R WCI  16
LA CROSSE WI   CLOUDY    36  30  79 E10G21    29.71R
$$

  *****  SOME NATIONAL WEATHER *****

CITY           SKY/WX    TMP DP  RH WIND       PRES   REMARKS
LA GUARDIA NY  PTCLDY    36  25  64 W16G22    29.58R
RALEIGH NC     CLEAR     32  26  78 CALM      29.87S
ATLANTA GA     CLEAR     33  26  75 W3        29.95F
NEW ORLEANS LA PTCLDY    42  39  89 SW6       30.07S
OKLAHOMA CITY  CLOUDY    50  33  52 NW13      29.90R
ALBUQUERQUE NM PTCLDY    32  19  58 CALM      30.26F
SALT LAKE CITY CLOUDY    36  28  73 CALM      30.46S
LOS ANGELES CA CLEAR     63  31  30 CALM      30.03F
BOISE ID       CLEAR     30  28  92 CALM      30.48S
SEATTLE WA     FOG       54  52  94 SW8       30.22S VSB 1/2
$$

*** WEATHER ACROSS MANITOBA...SASKATCHEWAN AND ONTARIO ***
                ***ONTARIO***

CITY           SKY/WX    TMP DP  RH WIND       PRES   REMARKS
GERALDTON      CLEAR    -15 -18  84 NW6       30.00R WCI -29
THUNDER BAY    CLEAR     -9 -13  84 NW3       30.06R
SIOUX LOOKOUT  CLEAR    -17 -22  76 NE2       30.03R
TORONTO        PTCLDY    18  10  73 N14G23    29.71R WCI   4
BIG TROUT LK   CLEAR    -24 -29  76 W3        30.10R
PICKLE LAKE    NOT AVBL
DRYDEN         MOCLDY    -9 -13  84 NE6       30.01R WCI -23
KENORA         CLOUDY     1  -6  71 E8        29.99R WCI -12
$$
                *** MANITOBA***

CITY           SKY/WX    TMP DP  RH WIND       PRES   REMARKS
BRANDON        CLOUDY    10   7  85 E10       29.99R WCI  -3
DAUPHIN        CLOUDY    10   7  85 W3        30.02S
ISLAND LAKE    CRYSTALS -18 -24  76 SE3       30.08
PILOT MOUND      N/A     12   9  85 NE7         N/A  WCI   2
THE PAS        CRYSTALS   3   0  85 S7        29.99F WCI  -9
THOMPSON       FLURRIES  -6 -11  77 VRB2      30.02
WINNIPEG       CLOUDY    14   3  62 E7        30.02R WCI   4
LYNN LAKE      FLURRIES  -2  -6  84 S5        29.87F WCI -12
CHURCHILL      PTCLDY   -26 -31  75 W3        30.11F
GILLAM         CLEAR    -26 -31  75 SW3       30.10F
$$
                ***SASKATCHEWAN***

CITY           SKY/WX    TMP DP  RH WIND       PRES   REMARKS
ESTEVAN        CLOUDY    32  30  93 NW22G29   29.94R WCI  19
KINDERSLEY     MOCLDY    25  23  93 S8        29.92F WCI  16
LLOYDMINSTER   CLOUDY    34  27  75 SW10      29.82F
PRINCE ALBERT  CLEAR     18  16  93 SW3       29.91F
REGINA         CLOUDY    21  19  93 NW9       30.01  WCI  11
YORKTON        PTCLDY     3   1  92 W5        29.99R WCI  -6
N. BATTLEFORD  MOCLDY    28  27  93 S2        29.90F
LA RONGE       FLURRIES  14  12  92 E3        29.83F
SASKATOON      MOCLDY    25  23  93 S7        29.93F WCI  17
SWIFT CURRENT  PTCLDY    28  25  86 SW9       29.96F WCI  20
$$
NOTE: THESE ARE AUTOMATED STATIONS WITH LIMITED QUALITY CONTROL
      "FAIR" INDICATES FEW OR NO CLOUDS BELOW 12,000 FEET WITH NO
      SIGNIFICANT WEATHER AND/OR OBSTRUCTIONS TO VISIBILITY.
      SKY/WX - SKY CONDITION AND SIGNIFICANT WEATHER.
      TMP - AIR TEMPERATURE.    DP   - DEWPOINT TEMPERATURE.
      RH  - RELATIVE HUMIDITY.  PRES - PRESSURE.
      HX  - HEAT INDEX.         WCI  - WIND CHILL INDEX.
$


USA.gov is the U.S. government's official web portal to all federal, state and local government web resources and services.